Weather in Czarna Woda

Poland     53°50′34″N   18°05′33″E
temp.,
°C
wind,
m/s
gust,
m/s
humid.,
%
clouds,
%
prec.,
mm/h
press.,
hPa
HPBL,
m
14 june, mon
mon1423:00+10wnw310825 0.0 1022309
02:00+9wnw38945 0.0 1022170
05:00+9wnw26965 0.0 1022127
08:00+16wnw33610 0.0 1022490
11:00+21wsw22400 0.0 10211304
14:00+23sw33375 0.0 10201660
17:00+23sw44415 0.0 10191381
20:00+20ssw37595 0.0 1018300
15 june, tue
tue1523:00+15sw3980100 0.0 1018181
02:00+14sw3886100 0.0 1017175
05:00+14sw3880100 0.0 1017210
08:00+18w3569100 0.0 1017374
11:00+22wnw3560100 0.0 10171216
14:00+20nw4567100 1.3 10171217
17:00+21nw443937 0.1 10171403
20:00+17nnw364818 0.1 1018305
16 june, wed
wed1623:00+11nnw23750 0.0 102038
02:00+9nnw22885 0.0 102016
05:00+9nw118899 0.0 102114
08:00+16n016095 0.0 1021463
11:00+21s1139100 0.0 10211272
14:00+23ssw2131100 0.0 10201697
17:00+23s323355 0.0 10201736
20:00+19sse365339 0.0 1020248
17 june, thu
thu1723:00+14se22706 0.0 102135
02:00+12ese22805 0.0 102136
05:00+11se25825 0.0 1022100
08:00+18se36565 0.0 1022414
11:00+23sse44460 0.0 10211110
14:00+26sse44430 0.0 10201504
17:00+25sse45450 0.0 10201493
20:00+22se37570 0.0 1020287
18 june, fri
fri1823:00+16ese39790 0.0 1020179
02:00+15se39810 0.0 1020169
05:00+15se310830 0.0 1019233
08:00+21se47662 0.0 1019436
11:00+26sse575122 0.0 10181377
14:00+28sse674522 0.0 10181895
17:00+28sse6645100 0.0 10171926
20:00+25se37605 0.0 1017402